Home   Weather   Legnica   Past weeks

Flag for Poland Past Weather in Legnica, Poland — Yesterday and Last 2 Weeks

Now
26 °F

Fog.


Feels Like: 10 °F
Forecast: 19 / 26 °F
Wind: 30 mph from West

Location: Wroclaw Ii

Current Time: Jan 17, 2017 at 4:08:20 am

Latest Report: Jan 17, 2017 at 3:00 am


Visibility: 14 mi

Pressure: 30.45 "Hg

Humidity: 95%

Dew Point: 25 °F

Location of LegnicaLocation

Past Weather in Legnica — Graph

°F

Legnica Temperature Yesterday

Maximum temperature yesterday: 34 °F (at 10:00 am)
Minimum temperature yesterday: 24 °F (at 9:00 pm)
Average temperature yesterday: 30 °F

High & Low Weather Summary for the Past Weeks

 TemperatureHumidityPressure
High43 °F (Jan 13, 12:00 pm)96% (Jan 16, 9:00 am)30.73 "Hg (Jan 16, 9:00 am)
Low5 °F (Jan 7, 6:00 am)45% (Jan 11, 1:00 pm)29.26 "Hg (Jan 13, 7:00 am)
Average28 °F78%30.04 "Hg
* Reported Jan 2 3:00 am — Jan 17 2:00 am, Legnica, Weather by CustomWeather, © 2017

Note: Actual official high and low records may vary slightly from our data, if they occured in-between our weather recording intervals... More about our weather records

Advertising

Legnica Weather History for the Previous 24 Hours

Scroll right to see more
 ConditionsComfort  
Time TempWeatherWind HumidityBarometerVisibility
2:00 am
Tue, Jan 17
26 °FFog.5 mph95%30.44 "Hg2 mi
1:00 am26 °FFog.1 mph95%30.42 "Hg1 mi
12:00 am26 °FFog.3 mph95%30.40 "Hg1 mi
11:00 pm
Mon, Jan 16
N/APassing clouds.35 mphN/AN/A2 mi
10:00 pm24 °FFog.2 mph94%30.38 "Hg0 mi
9:00 pm24 °FFog.23 mph93%30.37 "Hg3 mi
8:00 pm25 °FFog.32 mph92%30.34 "Hg4 mi
7:00 pm26 °FFog.1 mph91%30.32 "Hg5 mi
6:00 pm28 °FOvercast.1 mph87%30.29 "Hg9 mi
5:00 pm29 °FPassing clouds.1 mph89%30.27 "Hg9 mi
4:00 pm31 °FSnow flurries. Low clouds.3 mph89%30.24 "Hg5 mi
3:00 pm32 °FSnow showers. Low clouds.3 mph87%30.23 "Hg2 mi
2:00 pm33 °FLight snow. Low clouds.3 mph85%30.21 "Hg9 mi
1:00 pm33 °FLow clouds.2 mph87%30.20 "Hg9 mi
12:00 pm33 °FLight snow. Low clouds.3 mph88%30.19 "Hg7 mi
11:00 am34 °FLight snow. Low clouds.2 mph90%30.18 "Hg3 mi
10:00 am34 °FLight snow. Passing clouds.28 mph95%30.16 "Hg9 mi
9:00 am32 °FLight snow. Low clouds.1 mph96%30.15 "Hg2 mi
8:00 am32 °FLight snow. Low clouds.1 mph95%30.14 "Hg3 mi
6:00 am32 °FLight snow. Low clouds.2 mph95%30.10 "Hg5 mi
5:00 am31 °FSnow flurries. Low clouds.3 mph95%30.09 "Hg3 mi
4:00 am31 °FSnow flurries. Low clouds.2 mph95%30.09 "Hg4 mi
Weather by CustomWeather, © 2017

See weather overviewHow to use our weather pages